Tracking 22287 objects as of 27-Jan-2021
HD Live streaming from Space Station
objects crossing your sky now

UFO 1 (USA 98)

Track UFO 1 (USA 98) now!
UFO 1 (USA 98) is classified as:


NORAD ID: 22563
Int'l Code: 1993-015A
Perigee: 36,056.1 km
Apogee: 36,107.5 km
Inclination: 21.1 °
Period: 1,450.8 minutes
Semi major axis: 42452 km
RCS: 8.2516 m2 (large)
Launch date: March 25, 1993
Source: United States (US)
Launch site: AIR FORCE EASTERN TEST RANGE (AFETR)
aabbcc
Your satellite tracking list
Your tracking list is empty




NASA's NSSDC Master Catalog

Two Line Element Set (TLE):
1 22563U 93015A   21026.40620025  .00000013  00000-0  00000-0 0  9990
2 22563  21.1088 104.6457 0006044 222.6062 146.6328  0.99252938105172
Source of the keplerian elements: AFSPC